Вернуться в каталог

STARLINK-34125

АктивенСвязьVLEO
NORAD 63901·PAYLOAD·🇺🇸 United States

Запущен May 10, 2025 с Cape Canaveral Space Force Station

Loading…

Ближайшие Пролёты (ближайшие 24 часа)

TLE

СвежийSource: CelesTrak SupGP

Эпоха: Sep 14, 2026, 20:51 UTC

1 63901C 25095M   26257.86923611  .00009912  00000+0  35900-3 0  2575
2 63901  43.0000 187.8424 0001411 262.0625 334.5973 15.27575328    12

Отслеживайте STARLINK-34125 в реальном времени с AllMySat

Download on the App Store